www.pogodaiklimat.ru

Погода и климат >> Архив погоды >> Россия >> Томская область >> Напас


ПОГОДА в Напасе

  • Прогноз погоды в Напасе
  • Монитор погоды в Напасе

АРХИВ ПОГОДЫ в Напасе

Время (UTC), дата Ветер
(напр.,м/с)
 
Видим.   Явления Облачность Т
(С)
Тd
(С)
f
(%)
Тe
(С)
Тes
(С)
Комфортность P
(гПа)
Po
(гПа)
Тmin
(С)
Tmax
(С)
R
(мм)
R24
(мм)
S
(см)
21 11.01 СЗ 1 20 км 3/0
[Ci fib]
-39.0 -41.8 75 -44 -44 опасность
обморожения
1023.3 1011.9
00 12.01 СЗ 1 20 км ясно -40.2 -42.8 76 -45 -45 опасность
обморожения
1024.2 1012.8 -40.7 57
03 12.01 З 2 20 км 3/0
[Ci sp]
-40.4 -43.3 73 -50 -50 опасность
обморожения
1026.0 1014.6 -41.2
06 12.01 З 1 20 км ясно -36.9 -39.8 74 -42 -41 опасность
обморожения
1029.0 1017.7
09 12.01 ЮВ 1 20 км 3/0
[]
-32.7 -35.8 74 -37 -37 опасность
обморожения
1031.3 1020.2
12 12.01 ЮВ 1 20 км 5/0
[Ac trans Ci sp]
-36.7 -39.4 76 -42 -42 опасность
обморожения
1034.1 1022.8 -32.7
15 12.01 ЮВ 1 20 км 3/0
[Cs]
-37.8 -40.5 76 -43 -43 опасность
обморожения
1035.3 1023.9
21 12.01 ЮВ 2 20 км 3/0
[Ci sp]
-33.0 -36.0 74 -41 -41 опасность
обморожения
1036.0 1024.9
00 13.01 ЮВ 2 20 км 10/0
[Ci fib]
-28.7 -31.9 74 -36 -36 опасность
обморожения
1035.3 1024.3 -39.2 57
03 13.01 ЮВ 3 20 км 10/0
[Ac und Ci fib]
-26.4 -28.9 79 -35 -35 опасность
обморожения
1033.3 1022.5
06 13.01 Ю 4 10 км слаб. ливневой снег 10/6 300 м
[Cb cap Ac As]
-21.0 -23.5 80 -30 -30 1030.3 1019.7
09 13.01 Ю 5
{11}
20 км позёмок {ливн. осадки} 10/4 300 м
[Sc Ac und Ci sp]
-17.5 -20.1 80 -27 -27 1027.2 1016.7
12 13.01 Ю 6-10
{11}
4000 м слаб. ливневой снег {метель} 10/10 400 м
[Cb cap]
-15.8 -17.7 85 -26 -26 1025.4 1015.2 -15.8 0.2
15 13.01 Ю 6-12
{15}
4000 м слаб. ливневой снег {метель} 10/10 240 м
[Cb cap]
-14.3 -16.3 85 -24 -24 1024.0 1013.8
21 13.01 Ю 6-11
{16}
20 км позёмок {ливн. осадки} 10/10 210 м
[St]
-10.2 -13.0 80 -19 -19 1020.4 1010.3
00 14.01 Ю 5-10
{14}
4000 м слаб. ливневой снег {метель} 10/10 210 м
[Cb cap]
-8.9 -11.8 79 -17 -17 1020.7 1010.6 -16.3 0.5 51
03 14.01 Ю 6-12
{14}
4000 м слаб. ливневой снег {метель} 10/10 210 м
[Cb cap]
-8.9 -11.0 85 -17 -17 1020.2 1010.2
06 14.01 ЮЗ 5-11
{12}
4000 м слаб. ливневой снег {метель} 10/10 400 м
[Cb cap]
-7.7 -10.3 82 -15 -15 1020.7 1010.7
09 14.01 ЮЗ 3
{12}
20 км {ливн. осадки, метель} 10/10 450 м
[Cb cap]
-7.2 -10.2 79 -13 -13 1020.5 1010.5
12 14.01 Ю 3 20 км {ливн. осадки, метель} 4/0
[Ci fib]
-11.0 -13.0 85 -17 -17 1020.5 1010.4 -7.2 0.2
15 14.01 Ю 3 20 км 8/0
[Ac trans Ci fib]
-10.9 -12.9 85 -17 -17 1019.0 1008.9
18 14.01 Ю 3 20 км 10/0
[Ci fib]
-10.6 -13.4 80 -17 -17 1017.0 1006.9
21 14.01 Ю 4 20 км 3/0
[Ci fib]
-10.5 -13.3 80 -17 -17 1014.4 1004.4
00 15.01 ЮВ 4
{11}
20 км ясно -10.4 -13.2 80 -17 -17 1012.1 1002.1 -13.2 51
03 15.01 Ю 1 20 км 10/0
[Ac trans Ci sp]
-11.8 -14.6 80 -14 -14 1009.6 999.6
06 15.01 Ю 2 20 км 10/0
[Ac und Ci sp]
-9.3 -12.3 79 -14 -13 1008.6 998.6
09 15.01 Ю 2 20 км 10/0
[Ac und Ci sp]
-9.0 -12.9 73 -13 -13 1008.6 998.6
12 15.01 Ю 2 4000 м слаб. ливневой снег 8/8 210 м
[Cb cap]
-10.5 -12.5 85 -15 -15 1009.8 999.8 -9.0 0.0
15 15.01 З 1 4000 м слаб. снег 10/0
[As op]
-12.3 -13.6 90 -15 -15 1011.4 1001.4
18 15.01 Ю 1 4000 м слаб. снег 10/0
[As op]
-17.2 -19.1 85 -20 -20 1013.1 1002.9
00 16.01 Ю 1 4000 м слаб. снег 10/0
[As op]
-18.2 -20.1 85 -21 -21 1016.4 1006.2 -19.8 0.2 51
03 16.01 Ю 1 20 км {снег} 10/0
[Ci sp]
-19.3 -20.5 90 -22 -22 1017.8 1007.3 -21.1
06 16.01 Ю 1 10 км слаб. снег 10/4 200 м
[St As trans]
-18.3 -20.2 85 -21 -21 1018.1 1007.7
09 16.01 Ю 1 20 км {снег} 10/10 210 м
[St]
-15.3 -17.3 85 -18 -18 1018.1 1007.9
12 16.01 ЮЗ 1 20 км {снег} 10/0
[Cs]
-14.8 -16.1 90 -17 -17 1018.4 1008.2 -14.7 0.2
15 16.01 Ю 2 20 км 10/10 750 м
[Sc]
-16.4 -17.7 90 -22 -22 1018.6 1008.4
18 16.01 Ю 2 20 км 10/0
[Ac As]
-14.0 -15.3 90 -19 -19 1019.1 1008.9
21 16.01 Ю 1 4000 м слаб. снег 10/0
[As op]
-14.5 -15.8 90 -17 -17 1019.9 1009.7
00 17.01 Ю 1 4000 м слаб. снег 10/0
[As trans]
-12.7 -14.0 90 -15 -15 1021.6 1011.4 -17.8 0.2 51
03 17.01 З 1 4000 м слаб. ливневой снег 10/10 240 м
[Cb cap]
-12.2 -13.5 90 -14 -14 1023.8 1013.7
06 17.01 Ю 1 20 км {ливн. осадки, снег} 4/3 300 м
[Cb cap Ac trans Ci sp]
-12.6 -13.9 90 -15 -14 1025.8 1015.7
09 17.01 Ю 1 20 км 10/10 900 м
[Sc]
-12.8 -14.1 90 -15 -15 1026.7 1016.5
12 17.01 Ю 1 20 км {снег} 10/10 210 м
[St]
-12.7 -14.0 90 -15 -15 1027.9 1017.6 -12.0 0.3
15 17.01 Ю 3 4000 м слаб. снег 10/8 240 м
[Frnb As op]
-11.4 -12.7 90 -17 -17 1027.5 1017.3
18 17.01 Ю 3 20 км {снег} 10/0
[As op]
-14.6 -15.9 90 -21 -21 1026.8 1016.6
21 17.01 Ю 2 20 км 10/0
[Ac trans Ci sp]
-13.4 -14.7 90 -18 -18 1026.6 1016.4
00 18.01 Ю 4 20 км 10/0
[Ac und Ci sp]
-11.2 -12.5 90 -18 -18 1025.1 1015.0 -15.8 0.0 52
03 18.01 Ю 4 20 км 10/10 210 м
[St]
-10.7 -12.0 90 -18 -18 1023.2 1013.1
06 18.01 Ю 4 20 км 10/10 210 м
[St]
-10.7 -12.0 90 -18 -18 1023.2 1013.1
09 18.01 Ю 5-10
{14}
4000 м слаб. ливневой снег {метель} 10/10 210 м
[Cb cap]
-9.6 -11.7 85 -17 -17 1018.5 1008.4
12 18.01 Ю 5-10
{12}
4000 м слаб. ливневой снег {метель} 10/10 210 м
[Cb cap]
-9.3 -11.3 85 -17 -17 1018.0 1007.9 -9.3 0.2
15 18.01 Ю 3
{12}
4000 м слаб. ливневой снег {метель} 10/10 210 м
[Cb cap]
-9.0 -11.0 85 -15 -15 1017.3 1007.2

 

Местоположение метеостанции Напас (Томская область, Россия): широта 59.85 долгота 81.95 высота над уровнем моря 76 м.

В архиве по умолчанию представлена погода в Напасе за последнюю неделю. Архивные данные за месяц целиком и за предыдущие месяцы, начиная с января 2011 года, Вы можете получить, выбрав интересующий диапазон дат из раскрывающегося списка и нажав кнопку "Ввод!".


*Определитесь, кто Вы:
робот инопланетянин человек

Внимание! Время в таблицах - всемирное. Для получения местного времени необходимо прибавить поправку, которая равна 7 ч.

Смотрите также архив погоды в соседних городах и на ближайших метеорологических станциях:

Погода в Березовке (Томская область, Россия) (69 км)
Погода в Каргасоке (Томская область, Россия) (107 км)
Погода в Ванжиль-Кынаке (Томская область, Россия) (131 км)
Погода в Парабели (Томская область, Россия) (131 км)
Погода в Прохоркино (Томская область, Россия) (144 км)
Погода в Ларьяке (Ханты-Мансийский АО, Россия) (167 км)
Погода в Колпашево (Томская область, Россия) (180 км)
Погода в Корликах (Ханты-Мансийский АО, Россия) (189 км)
Погода в Старице (Томская область, Россия) (205 км)
Погода в Ваховске (Ханты-Мансийский АО, Россия) (213 км)

Пояснения к столбцам:

Ветер - указаны скорость ветра в м/с - средняя за 10 мин, порывы в срок и между сроками (в фигурных скобках) и направление, откуда дует ветер: С - северный, СВ - северо-восточный, В - восточный, ЮВ - юго-восточный, Ю - южный, ЮЗ - юго-западный, З - западный, СЗ - северо-западный.
Видимость - горизонтальная дальность видимости в метрах или километрах. При видимости от 1 до 10 км при отсутствии осадков обычно наблюдается дымка, при ухудшении видимости до 1 км и менее - туман. В сухую погоду видимость может ухудшаться дымом, пылью или мглою.
Явления - указаны атмосферные явления, наблюдавшиеся в срок или в последний час перед сроком; фигурными скобками обозначены явления, наблюдавшиеся между сроками (за 1-3 часа до срока); квадратными скобками обозначены град или гололедные отложения с указанием их диаметра в мм.
Облачность - указаны через наклонную черту общая и нижняя облачность в баллах и высота нижней границы облаков в метрах; квадратными скобками обозначены формы облаков: Ci - перистые, Cs - перисто-слоистые, Cc - перисто-кучевые, Ac - высококучевые, As - высокослоистые, Sc - слоисто-кучевые, Ns - слоисто-дождевые, Cu - кучевые, Cb - кучево-дождевые. Подробнее классификацию облаков см. в Атласе облаков (PDF).
T - Температура воздуха - температура, измеренная на высоте 2 м над землей.
Td - Температура точки росы - температура, при понижении до которой содержащийся в воздухе водяной пар достигнет насыщения.
f - Относительная влажность воздуха - влажноcть воздуха, измеренная на высоте 2 м над землей.
Te - Эффективная температура - температура, которую ощущает одетый по сезону человек в тени. Характеристика душности погоды. При расчете учитывается влияние влажности воздуха и скорости ветра на теплоощущения человека.
Tes - Эффективная температура на солнце - температура, которую ощущает человек, с поправкой на солнечный нагрев. Характеристика знойности погоды. Зависит от высоты солнца над горизонтом, облачности и скорости ветра. Ночью, в пасмурную погоду, а также при ветре 12 м/с и более поправка равна нулю.
P - Атмосферное давление - приведенное к уровню моря атмосферное давление.
Po - Атмосферное давление - измеренное на уровне метеостанции атмосферное давление.
Tmin - Минимальная температура - минимум температуры воздуха на высоте 2 м над землей.
Tmax - Максимальная температура - максимум температуры воздуха на высоте 2 м над землей.
R - Количество осадков - Количество выпавших осадков за период времени, мм. При наведении курсора мыши на число - период времени, за который выпало указанное количество осадков.
R24 - Количество осадков - Количество выпавших осадков за 24 часа, мм.
S - Снежный покров - Высота снежного покрова, см. При наведении курсора мыши на число - состояние снежного покрова и степень покрытия местности в баллах.